Dewpoint
-2 0 0 -1 -4 -3 -3 -2 -1 -5 -7 -6 -5 -2 2 -2 -1 -1 -2 0 0 3 3 3 4 3 4 9 8 12 12 13 12 12 13 11 10 9 9 8 9 8 9 9
-1 1 -4 -7 -7 -5 -4 -3 -3 -5 -6 -4 -3 -2 -3 -2 1 2 2 2 4 3 3 3 4 4 8 10 7 11 10 13 12 12 13 13 11 11 9 7 7 4 7 5
-1 -3 -6 -6 -5 -2 -3 -1 -1 -1 -2 0 2 1 -2 -2 -0 0 2 3 3 3 3 3 4 4 10 8 8 8 11 13 13 12 13 13 13 13 12 11 11 10 10 8
-3 -5 -4 -4 -3 -2 3 -1 3 3 4 4 -1 5 2 -1 1 2 1 2 3 3 3 4 4 4 10 9 8 10 9 13 13 13 13 13 12 12 12 12 12 12 11 11
-1 -2 -3 -1 -1 3 3 2 4 5 5 5 4 6 4 -0 4 3 3 4 4 4 4 5 6 6 11 9 8 9 11 12 13 13 13 13 13 11 10 9 9 8 7 6
-1 -3 -2 -0 -0 2 3 4 5 4 5 6 4 5 7 6 6 4 4 4 5 6 6 6 6 7 11 9 7 11 11 12 12 12 12 13 13 13 11 10 11 9 7 5
1 2 0 2 4 2 3 5 8 8 7 6 7 6 7 4 3 5 5 5 7 7 7 7 7 10 12 10 7 10 11 13 11 9 12 13 13 12 12 7 8 8 8 9
3 5 3 4 4 4 4 5 7 8 8 6 2 7 7 3 1 4 4 6 7 6 4 4 8 12 11 10 8 8 8 10 11 12 12 12 13 13 12 11 10 10 11 12
3 4 0 2 3 3 4 6 4 6 6 6 7 7 5 2 4 4 4 6 6 4 4 5 7 11 11 10 10 9 10 10 9 10 9 9 11 10 10 11 10 9 10 11
1 4 -1 0 2 3 5 4 6 7 8 8 7 6 5 5 5 5 5 6 6 5 5 7 10 12 11 10 10 10 10 8 8 10 8 10 9 8 8 8 8 10 9 10
1 2 5 3 5 5 5 4 3 3 2 8 7 6 5 4 3 6 5 6 6 6 5 6 9 11 11 11 11 10 11 11 11 11 11 9 8 9 7 8 9 10 9 9
0 2 6 3 -0 0 2 3 3 8 4 5 3 6 2 2 3 4 5 6 6 5 5 5 9 11 11 9 9 9 11 11 11 10 11 10 9 9 9 10 10 8 8 8
2 3 6 5 1 0 3 1 1 1 4 5 5 7 -1 -0 2 3 5 5 5 5 5 5 5 9 10 10 8 9 9 9 9 9 9 8 8 10 9 8 8 9 8 8
2 1 4 5 4 3 5 1 2 5 6 5 6 4 1 1 1 1 2 3 4 4 5 5 5 5 9 10 10 10 8 8 8 8 9 8 9 9 9 9 9 10 10 10
1 3 1 1 2 1 2 2 1 4 2 5 3 3 2 1 0 -0 0 1 1 2 4 5 5 5 5 7 9 10 9 7 7 7 7 7 9 9 9 10 10 10 10 10
-0 3 1 2 -0 0 3 2 2 2 1 2 2 3 0 -0 -0 0 0 0 1 1 2 3 4 5 5 4 6 9 9 9 9 8 7 7 7 9 8 9 10 10 9 9
1 1 2 3 0 0 2 3 2 2 2 1 4 2 -1 0 1 1 1 0 1 1 2 2 3 4 4 4 5 6 8 9 9 8 8 8 8 8 9 10 10 9 9 8
1 1 1 0 -1 2 1 1 2 2 2 0 -0 -0 -0 0 1 1 1 1 1 2 2 3 3 3 4 4 4 4 4 6 8 9 9 9 8 8 8 9 9 8 8 8
-0 0 0 1 1 1 1 1 3 4 3 -1 -1 -1 -1 -0 0 1 1 1 2 2 3 3 3 3 3 3 3 4 4 4 4 4 6 7 8 9 9 8 8 8 7 6
-1 -1 0 0 2 2 -0 -1 -1 -0 5 0 -0 -0 -1 -2 1 2 2 1 1 2 3 3 3 4 3 3 3 3 3 4 4 4 3 3 4 4 4 4 4 4 3 2
-2 -2 0 -0 1 0 -2 -2 -1 2 5 1 1 1 0 1 1 2 2 2 1 1 3 3 3 3 3 3 4 3 3 2 3 3 3 3 3 3 3 3 2 2 2 2
-2 -2 -2 -1 -0 2 -1 -0 0 2 2 1 1 1 1 1 2 2 2 1 1 1 1 2 3 3 3 3 3 3 3 2 2 2 2 2 2 3 3 3 2 2 2 1
-2 -2 -1 -1 -0 -0 1 1 1 1 2 2 2 2 2 2 2 2 1 1 1 1 1 1 1 2 3 3 3 3 3 3 3 2 2 2 2 2 2 1 1 1 1 1
-2 -3 -2 -1 -1 0 1 2 2 2 2 3 3 2 2 2 2 2 1 1 0 -1 -1 -1 -0 1 1 2 2 3 3 3 3 3 2 2 2 2 2 1 1 1 1 1
-3 -2 -2 -1 -1 -0 0 1 2 2 2 2 2 3 2 2 2 2 2 1 0 -1 -1 -2 -2 -2 -2 -2 -1 -1 0 1 2 3 3 2 3 2 2 2 2 1 1 1
-2 -3 -2 -4 -3 -3 -2 -0 1 1 1 -0 1 2 2 2 3 3 2 1 1 0 0 -1 -1 0 1 0 0 0 -1 -2 -1 -1 -0 1 1 2 2 1 1 1 1 0
Wind_Speed
9 7 11 18 16 19 16 19 23 23 22 22 22 19 20 23 17 20 23 21 24 20 17 17 17 20 25 22 34 32 46 44 44 35 38 32 32 28 27 28 27 29 25 26
7 14 17 14 16 15 18 21 26 25 22 19 22 25 15 17 16 18 17 18 21 19 19 16 17 15 21 22 30 17 44 44 45 37 39 35 32 28 29 29 28 29 27 28
14 15 9 13 14 17 19 20 25 24 24 21 23 24 19 18 22 17 14 16 21 22 22 17 11 13 23 29 37 30 29 43 42 40 40 37 31 30 29 26 27 27 27 25
12 11 9 11 16 14 20 20 25 24 17 13 13 5 16 16 12 13 18 16 20 22 18 16 9 15 23 33 27 38 51 39 46 43 39 37 35 35 32 32 31 29 26 26
6 7 11 15 18 8 11 13 11 13 10 8 12 6 2 14 9 10 9 15 14 16 16 14 14 20 29 22 37 30 51 52 47 46 41 39 36 35 31 29 28 30 28 26
18 22 13 12 14 14 15 10 14 7 4 5 8 10 3 1 9 8 4 7 2 2 10 14 17 21 29 23 25 34 34 39 47 37 36 36 35 31 30 28 25 26 30 28
8 8 6 2 8 6 6 11 3 5 6 1 0 6 5 7 5 5 9 10 9 3 2 8 14 19 28 28 19 28 8 34 27 31 31 34 32 32 26 29 28 29 31 30
5 2 4 2 3 5 8 6 4 5 3 4 9 5 6 9 4 18 13 9 10 16 13 2 11 20 28 29 16 25 24 19 18 26 21 32 30 26 28 23 27 29 28 25
5 3 3 3 3 2 7 5 9 6 2 2 3 1 5 16 15 15 14 12 20 24 20 6 10 20 29 31 25 25 23 19 13 15 7 16 12 9 12 22 26 28 28 23
4 5 2 2 4 8 4 9 3 1 6 4 5 6 6 14 15 13 14 17 22 28 22 16 11 23 28 29 25 27 23 21 23 20 18 20 11 15 26 25 25 29 30 25
4 4 7 4 4 4 4 3 5 4 3 4 3 5 9 13 11 12 12 17 25 28 26 19 14 22 28 25 22 19 19 20 29 26 27 27 28 27 30 26 27 43 34 34
3 4 4 4 3 5 7 9 4 4 5 6 6 6 11 15 15 16 19 22 27 26 24 22 19 24 27 27 23 19 14 15 12 14 20 22 24 28 24 27 37 31 38 40
9 5 3 5 4 5 5 14 3 3 2 13 5 4 13 17 19 21 13 20 26 28 26 26 22 22 22 22 21 19 17 18 19 19 23 25 24 24 25 26 33 32 30 32
5 5 5 6 5 5 7 14 12 3 8 12 13 14 17 17 17 16 19 21 19 27 26 29 26 22 18 17 16 19 21 18 18 21 24 23 25 26 26 29 33 31 32 34
3 3 5 7 7 12 12 16 18 13 14 9 14 17 13 13 14 18 19 19 21 26 27 21 21 19 15 16 12 13 19 20 20 21 21 21 22 22 22 25 27 29 31 31
3 2 4 6 8 12 15 17 15 14 15 15 16 15 10 14 16 19 19 19 22 22 19 17 17 8 11 8 9 9 10 15 18 22 23 23 23 23 22 25 26 27 26 27
4 2 2 3 2 4 5 12 9 13 13 10 10 9 10 12 15 18 18 19 18 17 17 16 16 13 9 7 6 7 8 10 16 19 23 24 24 24 24 26 25 24 24 24
4 2 2 2 4 2 3 5 8 12 12 11 10 10 10 11 16 18 18 17 16 15 15 14 12 9 9 10 9 7 8 8 9 11 16 20 21 21 21 22 23 24 24 24
2 3 0 2 5 4 3 2 3 5 8 10 10 9 9 3 8 22 18 17 16 15 14 13 11 10 10 9 8 7 6 6 7 8 10 12 15 16 18 19 19 20 21 21
3 3 3 1 2 1 4 4 4 6 2 7 9 10 10 10 7 7 14 16 16 16 16 15 12 10 9 7 7 5 4 3 3 5 8 9 11 12 14 16 17 18 18 18
1 1 1 3 2 4 4 2 3 3 4 4 6 8 12 9 8 6 9 12 14 16 17 14 12 10 10 10 8 7 4 2 2 3 6 8 10 12 13 15 16 18 19 21
2 2 1 1 0 4 2 3 4 5 6 5 6 6 8 8 7 7 8 11 14 15 16 16 15 12 9 7 6 6 6 5 2 1 2 4 7 10 13 13 15 16 17 19
1 3 3 4 3 3 3 5 5 4 6 4 4 4 4 4 5 6 7 10 12 12 13 13 13 14 12 8 6 5 5 4 3 2 1 3 6 7 8 10 14 16 18 21
3 2 1 3 4 6 6 5 5 4 5 4 4 3 2 3 3 3 5 6 8 9 10 10 10 12 12 12 10 8 6 6 4 6 8 5 6 8 11 13 14 15 17 19
2 7 5 2 4 4 5 5 6 6 5 3 2 3 2 2 1 0 1 2 3 5 6 7 8 9 10 9 9 9 8 7 4 3 4 8 8 11 11 12 15 17 18 19
10 6 5 2 11 7 12 13 10 7 5 3 2 1 1 2 2 1 2 2 2 4 5 4 4 6 6 7 8 9 9 6 5 5 5 6 7 8 11 14 17 18 19 18
Wind_Direction
253 263 251 245 248 247 263 267 273 276 278 275 268 268 257 249 249 242 231 230 237 231 240 223 235 260 268 241 232 190 182 187 191 191 182 180 172 170 176 177 176 177 177 180
248 250 259 268 270 276 272 274 271 279 273 264 272 267 246 240 224 226 227 229 224 229 229 227 223 258 239 212 225 204 184 193 192 191 192 191 185 183 181 181 183 185 183 188
251 261 284 269 270 271 266 262 270 269 286 279 267 252 247 233 226 223 243 243 231 227 220 226 226 248 214 205 193 192 207 197 196 192 186 189 182 180 183 184 183 189 186 188
269 283 274 276 272 270 272 263 254 260 264 259 207 248 207 219 216 240 248 236 234 216 222 235 238 233 195 201 191 229 218 205 202 195 191 188 185 183 187 189 192 190 188 192
278 311 293 279 278 278 252 296 271 261 261 261 222 274 159 191 217 245 237 248 235 226 222 234 235 214 195 205 206 226 207 215 190 197 195 193 194 197 197 194 194 198 197 200
261 275 284 261 295 274 270 265 256 233 262 250 190 206 71 284 226 224 199 211 216 298 247 235 222 202 187 191 201 193 209 216 195 191 197 197 196 195 194 189 188 192 198 193
305 245 260 293 290 284 295 279 246 173 198 123 215 107 47 15 329 90 81 48 19 46 155 191 201 184 181 188 199 228 233 178 196 204 201 204 195 196 195 199 199 200 195 194
320 299 324 86 272 307 302 291 326 351 34 87 28 46 21 28 107 95 67 43 34 32 32 32 190 170 179 186 179 214 251 257 168 160 166 196 196 198 201 195 202 206 202 203
319 328 292 222 231 259 319 321 333 310 134 81 7 164 269 32 66 53 28 26 42 34 28 60 161 168 180 188 162 195 212 216 203 237 241 237 210 213 197 210 194 198 200 174
327 293 329 48 243 229 291 320 327 282 0 63 21 52 1 16 48 60 17 42 36 31 29 58 145 161 162 170 172 185 203 206 201 218 235 225 191 220 224 242 237 202 205 204
279 262 353 343 351 314 333 357 319 290 3 346 33 38 357 29 56 54 28 37 37 26 38 44 84 139 155 167 168 167 201 209 203 201 201 195 203 218 203 226 229 213 205 210
338 297 315 284 279 278 300 321 328 328 56 18 77 46 32 52 60 63 26 39 33 38 37 47 66 100 137 145 143 142 177 186 161 168 186 192 203 216 215 215 213 221 223 228
348 356 296 307 149 22 356 9 35 8 341 30 58 65 47 52 52 63 58 31 32 32 46 50 56 87 117 146 151 161 165 161 163 181 186 187 189 187 197 204 201 198 185 192
300 20 6 48 38 342 347 41 52 55 70 84 71 79 51 47 55 54 58 58 46 39 38 44 46 65 91 122 145 166 165 169 181 190 195 193 189 193 191 190 192 194 204 215
328 61 49 63 64 50 45 53 60 58 70 71 80 65 57 55 52 54 53 48 53 50 40 40 37 34 65 83 108 142 156 168 171 182 188 193 199 200 199 202 204 200 191 185
344 95 92 76 62 63 55 31 54 50 80 95 86 74 76 63 61 49 48 46 42 41 49 52 55 38 28 50 94 112 148 165 176 185 185 187 191 195 196 194 193 189 187 188
4 339 305 123 308 291 39 11 29 57 46 44 69 54 61 62 59 49 45 46 44 39 35 36 46 49 66 86 113 138 156 163 182 190 191 188 190 192 192 191 193 192 190 191
338 330 313 354 277 79 54 43 24 66 44 43 60 49 63 81 72 60 49 48 41 37 34 31 38 63 68 71 87 112 140 159 171 179 185 187 190 194 193 191 192 192 198 204
347 274 260 286 48 113 132 95 30 8 42 26 34 39 48 94 106 43 40 47 45 34 29 34 40 48 58 69 74 79 106 142 164 181 182 187 190 191 194 201 203 203 207 206
250 241 280 52 120 125 61 81 359 341 77 28 31 31 18 0 65 48 28 33 41 44 37 38 47 67 75 76 79 81 99 121 162 181 192 195 200 204 206 209 208 208 208 210
81 3 359 66 72 101 99 24 358 255 101 81 53 40 44 67 65 64 41 44 42 40 44 51 57 70 80 89 96 107 117 117 166 213 215 216 214 214 213 217 216 217 217 217
336 320 61 195 162 133 110 176 295 90 103 92 64 54 71 82 86 72 59 45 40 42 41 43 49 57 73 85 85 80 83 75 58 307 237 227 222 217 219 220 224 224 220 218
186 358 21 351 44 89 92 87 110 96 116 92 80 64 77 83 91 73 50 32 34 42 46 44 45 51 53 48 40 38 26 7 8 351 312 256 258 257 250 230 221 220 219 220
188 202 226 211 139 139 131 123 116 103 105 93 83 76 70 98 95 41 27 25 31 29 34 42 45 46 45 43 44 43 29 6 338 336 312 294 274 256 246 244 243 233 231 227
52 162 186 146 161 159 187 172 158 140 137 120 98 84 85 116 29 80 9 36 35 36 31 39 38 37 35 30 27 27 22 15 5 346 305 293 282 274 265 259 257 251 246 245
187 184 193 232 175 190 178 176 171 163 165 153 129 29 319 258 291 263 264 280 12 350 349 0 13 7 4 2 0 354 352 343 319 298 287 273 267 269 267 272 273 273 265 262
Height
1474 1473 1468 1464 1458 1458 1456 1454 1450 1439 1435 1432 1426 1424 1421 1412 1412 1411 1411 1415 1417 1420 1424 1427 1432 1432 1432 1433 1428 1437 1446 1456 1465 1474 1481 1488 1494 1500 1505 1510 1515 1520 1525 1529
1472 1469 1458 1454 1453 1456 1455 1451 1440 1432 1430 1430 1422 1411 1404 1405 1409 1411 1411 1412 1415 1418 1419 1421 1424 1426 1429 1428 1431 1430 1449 1456 1461 1469 1479 1485 1491 1498 1502 1508 1513 1518 1523 1526
1464 1453 1453 1453 1453 1454 1449 1448 1438 1437 1429 1428 1420 1402 1399 1399 1403 1406 1409 1409 1408 1410 1413 1413 1417 1420 1423 1425 1431 1438 1440 1455 1457 1465 1474 1482 1491 1497 1500 1506 1512 1516 1520 1524
1455 1450 1451 1450 1448 1450 1446 1435 1438 1436 1435 1419 1404 1393 1392 1393 1399 1405 1405 1404 1405 1409 1410 1411 1409 1413 1415 1422 1427 1444 1449 1449 1455 1462 1471 1478 1486 1492 1496 1502 1507 1513 1518 1522
1451 1449 1447 1445 1441 1446 1436 1435 1432 1429 1423 1421 1403 1411 1394 1388 1400 1401 1401 1400 1402 1404 1406 1405 1407 1411 1415 1419 1426 1436 1441 1447 1448 1459 1468 1476 1483 1489 1494 1500 1504 1511 1516 1520
1451 1449 1449 1443 1439 1438 1435 1428 1422 1423 1419 1403 1391 1408 1402 1407 1402 1397 1400 1400 1400 1399 1401 1403 1405 1407 1411 1419 1424 1432 1443 1433 1450 1456 1465 1473 1478 1485 1490 1496 1502 1507 1513 1516
1445 1443 1443 1445 1441 1429 1430 1418 1393 1394 1405 1388 1394 1399 1407 1408 1401 1396 1400 1400 1401 1402 1401 1398 1399 1401 1407 1417 1421 1432 1433 1434 1443 1455 1464 1470 1476 1481 1487 1491 1497 1506 1511 1514
1449 1438 1442 1444 1441 1437 1431 1417 1402 1394 1389 1390 1383 1399 1410 1405 1397 1399 1403 1405 1402 1397 1394 1393 1395 1399 1406 1414 1425 1435 1438 1434 1442 1451 1463 1469 1473 1478 1485 1486 1499 1505 1509 1513
1449 1439 1439 1441 1441 1440 1421 1409 1414 1407 1404 1393 1405 1410 1407 1402 1397 1403 1402 1401 1400 1397 1394 1393 1395 1399 1405 1415 1425 1436 1440 1445 1446 1451 1458 1464 1470 1472 1478 1489 1495 1500 1504 1510
1456 1447 1432 1433 1437 1434 1430 1424 1409 1401 1397 1396 1402 1407 1417 1407 1404 1405 1403 1403 1403 1399 1396 1396 1399 1404 1410 1419 1424 1436 1441 1442 1445 1450 1458 1467 1468 1476 1481 1483 1490 1496 1500 1505
1457 1450 1439 1434 1438 1436 1430 1422 1416 1409 1405 1403 1401 1418 1423 1414 1415 1412 1410 1406 1404 1402 1401 1403 1401 1407 1412 1421 1428 1434 1441 1442 1443 1452 1458 1463 1466 1469 1470 1474 1482 1489 1494 1498
1450 1449 1442 1436 1431 1432 1430 1422 1419 1414 1409 1408 1408 1429 1422 1417 1418 1417 1413 1412 1411 1413 1407 1406 1405 1410 1416 1424 1427 1430 1438 1442 1445 1451 1454 1461 1466 1469 1469 1474 1482 1487 1491 1495
1451 1446 1442 1428 1428 1427 1427 1418 1419 1417 1412 1414 1414 1433 1427 1422 1421 1426 1426 1422 1418 1420 1420 1418 1418 1418 1423 1427 1431 1438 1443 1447 1452 1456 1459 1463 1466 1468 1471 1475 1480 1487 1487 1494
1456 1451 1450 1445 1444 1444 1438 1422 1420 1424 1421 1430 1433 1437 1432 1431 1434 1434 1434 1433 1433 1428 1427 1427 1427 1428 1431 1433 1438 1442 1445 1448 1455 1459 1464 1466 1469 1471 1474 1478 1482 1484 1488 1492
1451 1455 1448 1443 1443 1437 1434 1432 1427 1428 1427 1435 1439 1439 1444 1443 1443 1444 1441 1442 1443 1436 1433 1436 1436 1436 1439 1440 1443 1446 1448 1453 1458 1463 1465 1466 1470 1471 1473 1476 1478 1480 1484 1490
1451 1453 1452 1450 1443 1440 1445 1440 1439 1435 1435 1438 1442 1448 1451 1452 1451 1448 1449 1449 1445 1446 1452 1451 1446 1446 1450 1447 1449 1453 1454 1457 1460 1463 1464 1467 1471 1472 1475 1476 1479 1482 1485 1489
1452 1449 1448 1450 1448 1445 1445 1455 1448 1446 1446 1442 1450 1454 1452 1456 1458 1459 1458 1456 1456 1455 1456 1456 1453 1456 1458 1456 1454 1456 1458 1460 1462 1465 1466 1468 1471 1472 1474 1475 1478 1481 1486 1488
1455 1453 1451 1443 1443 1445 1458 1458 1455 1452 1454 1452 1453 1456 1458 1460 1461 1464 1465 1464 1463 1463 1461 1460 1461 1462 1461 1459 1458 1463 1462 1464 1465 1467 1468 1468 1470 1472 1473 1475 1478 1479 1484 1487
1463 1457 1450 1445 1447 1457 1458 1459 1460 1461 1459 1457 1455 1456 1458 1460 1458 1463 1465 1466 1466 1464 1463 1461 1461 1461 1458 1459 1462 1464 1466 1469 1469 1471 1469 1470 1471 1472 1473 1476 1478 1478 1483 1484
1463 1460 1453 1450 1453 1451 1453 1460 1460 1459 1465 1462 1461 1460 1458 1454 1457 1468 1467 1464 1466 1467 1466 1464 1464 1464 1463 1466 1468 1469 1471 1471 1472 1472 1471 1471 1472 1473 1474 1478 1477 1479 1481 1482
1454 1452 1451 1450 1452 1458 1462 1462 1464 1462 1469 1465 1465 1466 1465 1465 1469 1472 1471 1470 1467 1465 1466 1469 1468 1468 1468 1471 1474 1475 1474 1470 1472 1472 1471 1471 1471 1471 1472 1475 1476 1477 1478 1482
1454 1453 1452 1454 1452 1460 1467 1467 1464 1467 1468 1469 1470 1470 1470 1471 1472 1472 1471 1470 1469 1467 1466 1466 1466 1467 1468 1468 1470 1471 1472 1473 1472 1471 1469 1468 1470 1470 1471 1471 1473 1475 1476 1480
1455 1459 1455 1459 1460 1467 1468 1468 1470 1471 1471 1472 1472 1472 1473 1472 1473 1472 1472 1470 1469 1469 1468 1469 1467 1466 1465 1465 1466 1465 1465 1467 1470 1470 1467 1468 1470 1469 1469 1470 1473 1476 1476 1479
1460 1463 1458 1461 1465 1465 1467 1468 1469 1470 1471 1471 1471 1472 1473 1473 1474 1473 1473 1472 1471 1470 1471 1471 1470 1468 1467 1467 1465 1465 1467 1467 1467 1466 1467 1468 1469 1472 1472 1474 1474 1475 1477 1477
1457 1461 1458 1460 1465 1466 1467 1467 1468 1469 1470 1471 1472 1473 1473 1474 1475 1475 1475 1475 1475 1475 1475 1474 1473 1472 1472 1472 1470 1469 1470 1468 1467 1468 1469 1470 1470 1471 1470 1470 1473 1471 1471 1471
1454 1452 1453 1449 1453 1456 1459 1464 1466 1469 1470 1472 1473 1474 1474 1474 1475 1475 1475 1476 1475 1475 1475 1475 1475 1474 1474 1473 1473 1472 1471 1472 1473 1471 1470 1469 1470 1470 1468 1467 1468 1467 1468 1468